Voltar ao catálogo

CZ-4C DEB

AtivoSSO
NORAD 43270·DEBRIS·🇨🇳 China

Lançado Mar 31, 2018 de Taiyuan Satellite Launch Center

Loading…

Próximas Passagens (próximas 24 horas)

TLE

AtualizadoSource: Space-Track

Época: Sep 12, 2026, 08:56 UTC

1 43270U 18031J   26255.37279250  .00000390  00000-0  57201-4 0  9995
2 43270  97.7097 306.9176 0005264  19.3309 340.8102 14.80710045465846

Acompanhe CZ-4C DEB em tempo real com AllMySat

Download on the App Store